Weather History for Glendive, MT

Change the Weather History Date:

Saturday, June 22, 2013

  Actual Average Record
Temperature  
Mean Temperature 61 °F -  
Max Temperature 71 °F 74 °F 93 °F (2005)
Min Temperature 51 °F 49 °F 44 °F (1998)
Degree Days  
Heating Degree Days 4    
Growing Degree Days 11 (Base 50)    
Moisture  
Dew Point 53 °F    
Average Humidity 84    
Maximum Humidity 94    
Minimum Humidity 53    
Precipitation  
Precipitation 0.25 in - - ()
Sea Level Pressure  
Sea Level Pressure 29.96 in    
Wind  
Wind Speed 7 mph (NW)    
Max Wind Speed 14 mph    
Max Gust Speed -    
Visibility 10 miles    
Events      
Averages and records for this station are not official NWS values.
T = Trace of Precipitation, MM = Missing Value Source: NWS Daily Summary

Daily Weather History Graph

Daily Weather History Graph

Search for Another Location

Airport:

Trip Planner

Search our weather history database for the weather conditions in past years. The results will help you decide how hot, cold, wet, or windy it might be!

Date:

Astronomy

Jun. 22, 2013 Rise Set
Actual Time 5:03 AM MDT 8:58 PM MDT
Civil Twilight 4:23 AM MDT 9:38 PM MDT
Nautical Twilight 3:28 AM MDT 10:33 PM MDT
Astronomical Twilight 2:04 AM MDT 11:57 PM MDT
Moon 8:11 PM MDT (6/22) 4:23 AM MDT (6/22)
Length of Visible Light 17h 15m
Length of Day
15h 54m
Waxing Gibbous, 99% of the Moon is Illuminated
Jun 22
Waxing Gibbous
Jun 23
Full
Jun 29
Last Quarter
Jul 8
New
Jul 15
First Quarter

Hourly Weather History & Observations

Time (MDT) Temp. Dew Point Humidity Pressure Visibility Wind Dir Wind Speed Gust Speed Precip Events Conditions
12:15 AM 55.4 °F 51.8 °F 88% 29.98 in 10.0 mi NNW 5.8 mph - N/A   Clear
12:35 AM 55.4 °F 51.8 °F 88% 29.97 in 10.0 mi North 6.9 mph - N/A   Clear
12:55 AM 55.4 °F 51.8 °F 88% 29.96 in 10.0 mi North 8.1 mph - N/A   Clear
1:16 AM 53.6 °F 51.8 °F 94% 29.97 in 10.0 mi North 4.6 mph - N/A   Clear
1:35 AM 53.6 °F 50.0 °F 88% 29.99 in 10.0 mi NW 5.8 mph - N/A   Clear
1:55 AM 53.6 °F 50.0 °F 88% 29.99 in 10.0 mi NW 6.9 mph - N/A   Clear
2:15 AM 53.6 °F 51.8 °F 94% 30.00 in 10.0 mi NNW 3.5 mph - N/A   Clear
2:55 AM 53.6 °F 50.0 °F 88% 30.00 in 10.0 mi WNW 4.6 mph - N/A   Clear
3:15 AM 53.6 °F 50.0 °F 88% 29.99 in 10.0 mi Calm Calm - N/A   Clear
3:35 AM 53.6 °F 50.0 °F 88% 29.99 in 10.0 mi WNW 3.5 mph - N/A   Clear
3:55 AM 51.8 °F 48.2 °F 88% 29.99 in 10.0 mi NW 4.6 mph - N/A   Clear
4:15 AM 51.8 °F 50.0 °F 94% 29.96 in 10.0 mi NNW 9.2 mph - N/A   Clear
4:35 AM 51.8 °F 50.0 °F 94% 29.95 in 1.5 mi NNW 10.4 mph - N/A   Scattered Clouds
4:55 AM 53.6 °F 51.8 °F 94% 29.95 in 10.0 mi North 10.4 mph - N/A   Clear
5:35 AM 53.6 °F 51.8 °F 94% 29.94 in 10.0 mi North 10.4 mph - N/A   Overcast
5:55 AM 55.4 °F 51.8 °F 88% 29.96 in 10.0 mi NNE 5.8 mph - N/A   Overcast
6:15 AM 55.4 °F 51.8 °F 88% 29.97 in 10.0 mi NNE 5.8 mph - N/A   Overcast
6:35 AM 55.4 °F 53.6 °F 94% 29.99 in 10.0 mi NNW 4.6 mph - N/A   Overcast
6:55 AM 55.4 °F 51.8 °F 88% 30.01 in 10.0 mi Calm Calm - N/A   Overcast
7:15 AM 55.4 °F 51.8 °F 88% 30.02 in 10.0 mi Calm Calm - N/A   Overcast
7:35 AM 55.4 °F 53.6 °F 94% 30.01 in 10.0 mi Calm Calm - N/A   Overcast
7:55 AM 57.2 °F 53.6 °F 88% 30.01 in 10.0 mi WSW 3.5 mph - N/A   Overcast
8:15 AM 57.2 °F 53.6 °F 88% 30.03 in 10.0 mi WSW 6.9 mph - N/A   Overcast
8:35 AM 57.2 °F 53.6 °F 88% 30.04 in 10.0 mi WSW 10.4 mph - N/A   Overcast
8:55 AM 59.0 °F 53.6 °F 82% 30.02 in 10.0 mi WNW 6.9 mph - N/A   Mostly Cloudy
9:15 AM 60.8 °F 53.6 °F 77% 30.01 in 10.0 mi NNW 6.9 mph - N/A   Mostly Cloudy
9:35 AM 60.8 °F 53.6 °F 77% 30.00 in 10.0 mi NE 5.8 mph - N/A   Scattered Clouds
10:15 AM 64.4 °F 53.6 °F 68% 29.99 in 10.0 mi East 4.6 mph - N/A   Clear
10:55 AM 66.2 °F 53.6 °F 64% 29.98 in 10.0 mi NW 3.5 mph - N/A   Partly Cloudy
11:15 AM 66.2 °F 53.6 °F 64% 29.98 in 10.0 mi NW 6.9 mph - N/A   Clear
11:35 AM 66.2 °F 53.6 °F 64% 29.98 in 10.0 mi NNW 5.8 mph - N/A   Clear
11:55 AM 68.0 °F 55.4 °F 64% 29.96 in 10.0 mi WNW 8.1 mph - N/A   Clear
12:15 PM 69.8 °F 53.6 °F 56% 29.96 in 10.0 mi NNW 11.5 mph - N/A   Clear
12:35 PM 69.8 °F 51.8 °F 53% 29.95 in 10.0 mi NNW 11.5 mph - N/A   Clear
12:55 PM 71.6 °F 53.6 °F 53% 29.95 in 10.0 mi NW 8.1 mph - N/A   Partly Cloudy
1:15 PM 69.8 °F 53.6 °F 56% 29.95 in 10.0 mi NW 9.2 mph - N/A   Scattered Clouds
2:15 PM 64.4 °F 53.6 °F 68% 29.95 in 10.0 mi NW 10.4 mph - N/A   Overcast
2:35 PM 62.6 °F 55.4 °F 77% 29.94 in 10.0 mi NNW 10.4 mph - N/A   Overcast
3:15 PM 62.6 °F 55.4 °F 77% 29.94 in 10.0 mi NW 12.7 mph - N/A   Overcast
3:35 PM 60.8 °F 55.4 °F 82% 29.94 in 10.0 mi NW 11.5 mph - N/A   Overcast
3:55 PM 60.8 °F 55.4 °F 82% 29.94 in 10.0 mi NNW 9.2 mph - N/A   Overcast
4:15 PM 60.8 °F 57.2 °F 88% 29.94 in 10.0 mi NW 9.2 mph - N/A   Mostly Cloudy
4:35 PM 60.8 °F 55.4 °F 82% 29.95 in 10.0 mi West 5.8 mph - N/A   Overcast
4:55 PM 59.0 °F 55.4 °F 88% 29.93 in 10.0 mi West 5.8 mph - 0.05 in   Mostly Cloudy
5:35 PM 57.2 °F 53.6 °F 88% 29.89 in 10.0 mi East 13.8 mph - 0.12 in   Overcast
5:55 PM 57.2 °F 53.6 °F 88% 29.91 in 10.0 mi East 8.1 mph - 0.14 in   Mostly Cloudy
6:15 PM 57.2 °F 53.6 °F 88% 29.94 in 10.0 mi West 8.1 mph - 0.01 in   Mostly Cloudy
6:35 PM 57.2 °F 53.6 °F 88% 29.96 in 10.0 mi SW 5.8 mph - 0.02 in   Mostly Cloudy
6:55 PM 57.2 °F 53.6 °F 88% 29.95 in 10.0 mi Calm Calm - 0.05 in   Mostly Cloudy
7:15 PM 57.2 °F 53.6 °F 88% 29.93 in 10.0 mi ESE 6.9 mph - N/A   Scattered Clouds
7:35 PM 57.2 °F 53.6 °F 88% 29.91 in 10.0 mi ESE 9.2 mph - 0.01 in   Mostly Cloudy
7:55 PM 55.4 °F 53.6 °F 94% 29.93 in 10.0 mi South 5.8 mph - 0.01 in   Mostly Cloudy
8:15 PM 55.4 °F 53.6 °F 94% 29.92 in 10.0 mi SSE 5.8 mph - N/A   Overcast
8:35 PM 55.4 °F 53.6 °F 94% 29.92 in 10.0 mi Calm Calm - N/A   Overcast
9:15 PM 55.4 °F 53.6 °F 94% 29.92 in 10.0 mi SSW 6.9 mph - N/A   Mostly Cloudy
9:35 PM 55.4 °F 53.6 °F 94% 29.92 in 10.0 mi SSW 6.9 mph - N/A   Mostly Cloudy
9:55 PM 55.4 °F 53.6 °F 94% 29.92 in 10.0 mi SSW 9.2 mph - N/A   Mostly Cloudy
10:15 PM 55.4 °F 51.8 °F 88% 29.91 in 10.0 mi SSW 11.5 mph - N/A   Mostly Cloudy
10:35 PM 55.4 °F 51.8 °F 88% 29.90 in 10.0 mi SW 9.2 mph - N/A   Mostly Cloudy
10:55 PM 55.4 °F 51.8 °F 88% 29.90 in 10.0 mi SW 10.4 mph - N/A   Mostly Cloudy
11:35 PM 53.6 °F 51.8 °F 94% 29.89 in 10.0 mi WSW 8.1 mph - N/A   Scattered Clouds
11:55 PM 53.6 °F 51.8 °F 94% 29.87 in 10.0 mi WSW 8.1 mph - N/A   Mostly Cloudy